Weather History for Russell, KS

Change the Weather History Date:

Saturday, November 19, 2011

  Actual Average Record
Temperature  
Mean Temperature 36 °F -  
Max Temperature 50 °F 50 °F 82 °F (2007)
Min Temperature 23 °F 29 °F 11 °F (1985)
Degree Days  
Heating Degree Days 28    
Moisture  
Dew Point 32 °F    
Average Humidity 84    
Maximum Humidity 100    
Minimum Humidity 62    
Precipitation  
Precipitation 0.00 in - - ()
Sea Level Pressure  
Sea Level Pressure 29.76 in    
Wind  
Wind Speed 19 mph (NW)    
Max Wind Speed 31 mph    
Max Gust Speed 37 mph    
Visibility 8 miles    
Events      
Averages and records for this station are not official NWS values.
T = Trace of Precipitation, MM = Missing Value Source: NWS Daily Summary

Daily Weather History Graph

Daily Weather History Graph

Search for Another Location

Airport:

Trip Planner

Search our weather history database for the weather conditions in past years. The results will help you decide how hot, cold, wet, or windy it might be!

Date:

Astronomy

Nov. 19, 2011 Rise Set
Actual Time 7:22 AM CST 5:18 PM CST
Civil Twilight 6:53 AM CST 5:47 PM CST
Nautical Twilight 6:20 AM CST 6:19 PM CST
Astronomical Twilight 5:49 AM CST 6:51 PM CST
Moon 12:47 AM CST (11/19) 1:34 PM CST (11/19)
Length of Visible Light 10h 54m
Length of Day
9h 56m
Last Quarter, 38% of the Moon is Illuminated
Nov 19
Last Quarter
Nov 25
New
Dec 2
First Quarter
Dec 10
Full
Dec 17
Last Quarter

Hourly Weather History & Observations

Time (CST) Temp. Windchill Dew Point Humidity Pressure Visibility Wind Dir Wind Speed Gust Speed Precip Events Conditions
12:53 AM 50.0 °F - 45.0 °F 83% 29.46 in 10.0 mi South 15.0 mph 26.5 mph N/A   Clear
1:53 AM 50.0 °F - 46.0 °F 86% 29.44 in 10.0 mi SSW 13.8 mph 23.0 mph N/A   Clear
2:53 AM 48.9 °F - 46.0 °F 90% 29.42 in 10.0 mi South 13.8 mph - N/A   Clear
3:53 AM 48.0 °F - 45.0 °F 89% 29.42 in 10.0 mi SSW 15.0 mph - N/A   Clear
4:53 AM 46.4 °F 39.8 °F 44.6 °F 93% 29.43 in 10.0 mi SW 16.1 mph - N/A   Clear
5:53 AM 46.0 °F 38.3 °F 41.0 °F 83% 29.42 in 10.0 mi SW 20.7 mph - N/A   Clear
6:53 AM 41.0 °F 31.9 °F 35.6 °F 81% 29.45 in 10.0 mi WSW 19.6 mph - N/A   Clear
7:53 AM 37.9 °F 26.8 °F 30.0 °F 73% 29.54 in 10.0 mi West 24.2 mph - N/A   Clear
8:38 AM 37.4 °F 28.2 °F 33.8 °F 87% 29.57 in 8.0 mi WNW 16.1 mph 26.5 mph N/A   Scattered Clouds
8:46 AM 37.4 °F 27.5 °F 35.6 °F 93% 29.58 in 2.5 mi WNW 18.4 mph 26.5 mph N/A   Mostly Cloudy
8:53 AM 37.0 °F 25.9 °F 36.0 °F 96% 29.61 in 1.8 mi WNW 23.0 mph - N/A   Mostly Cloudy
9:00 AM 37.4 °F 26.6 °F 37.4 °F 100% 29.61 in 3.0 mi WNW 21.9 mph 27.6 mph N/A   Overcast
9:25 AM 37.4 °F 25.9 °F 37.4 °F 100% 29.64 in 1.8 mi NW 25.3 mph 33.4 mph N/A   Overcast
9:44 AM 35.6 °F 23.2 °F 35.6 °F 100% 29.67 in 2.5 mi NW 26.5 mph 32.2 mph N/A   Overcast
9:51 AM 35.6 °F 23.2 °F 35.6 °F 100% 29.68 in 3.0 mi NNW 26.5 mph 35.7 mph N/A   Overcast
9:53 AM 36.0 °F 23.9 °F 35.1 °F 97% 29.70 in 4.0 mi NNW 25.3 mph 35.7 mph N/A   Overcast
10:16 AM 35.6 °F 24.0 °F 33.8 °F 93% 29.70 in 6.0 mi NNW 23.0 mph 35.7 mph N/A   Overcast
10:53 AM 35.1 °F 23.0 °F 32.0 °F 89% 29.76 in 9.0 mi NNW 24.2 mph 32.2 mph N/A   Overcast
11:53 AM 36.0 °F 24.4 °F 30.9 °F 82% 29.79 in 10.0 mi NNW 23.0 mph 31.1 mph N/A   Overcast
12:53 PM 36.0 °F 23.7 °F 28.9 °F 76% 29.81 in 10.0 mi NNW 26.5 mph 33.4 mph N/A   Overcast
1:29 PM 37.4 °F 27.5 °F 28.4 °F 70% 29.81 in 10.0 mi NNW 18.4 mph 28.8 mph N/A   Overcast
1:53 PM 37.9 °F 26.6 °F 28.9 °F 70% 29.86 in 10.0 mi NNW 25.3 mph 33.4 mph N/A   Mostly Cloudy
2:25 PM 39.2 °F 27.6 °F 28.4 °F 65% 29.85 in 10.0 mi North 28.8 mph - N/A   Scattered Clouds
2:53 PM 39.0 °F 27.0 °F 28.0 °F 65% 29.88 in 10.0 mi NNW 31.1 mph 36.8 mph N/A   Clear
3:53 PM 37.9 °F 26.6 °F 26.1 °F 62% 29.94 in 10.0 mi North 25.3 mph - N/A   Clear
4:53 PM 33.1 °F 22.6 °F 25.0 °F 72% 29.99 in 10.0 mi North 16.1 mph - N/A   Clear
5:53 PM 30.0 °F 17.9 °F 24.1 °F 79% 30.03 in 10.0 mi North 18.4 mph - N/A   Clear
6:53 PM 28.4 °F 17.0 °F 23.0 °F 80% 30.03 in 10.0 mi North 15.0 mph - N/A   Clear
7:53 PM 27.0 °F 15.2 °F 21.9 °F 81% 30.12 in 10.0 mi North 15.0 mph - N/A   Clear
8:53 PM 25.0 °F 13.1 °F 21.0 °F 85% 30.16 in 10.0 mi North 13.8 mph - N/A   Clear
9:53 PM 24.8 °F 11.9 °F 19.4 °F 80% 30.10 in 10.0 mi North 16.1 mph - N/A   Clear
10:53 PM 23.0 °F 9.6 °F 19.9 °F 88% 30.17 in 9.0 mi North 16.1 mph - N/A   Clear
11:49 PM 23.0 °F 9.2 °F 19.4 °F 86% 30.12 in 9.0 mi North 17.3 mph - N/A   Mostly Cloudy
11:53 PM 23.0 °F 8.7 °F 19.9 °F 88% 30.18 in 9.0 mi North 18.4 mph - N/A   Mostly Cloudy